Year,Month,Day,Hour,Minute,Value (Times are PST for temperature in C)
2015,08,21,00,00,17.40
2015,08,21,00,01,17.40
2015,08,21,00,02,17.40
2015,08,21,00,03,17.40
2015,08,21,00,04,17.40
2015,08,21,00,05,17.40
2015,08,21,00,06,17.40
2015,08,21,00,07,17.40
2015,08,21,00,08,17.40
2015,08,21,00,09,17.40
2015,08,21,00,10,17.40
2015,08,21,00,11,17.40
2015,08,21,00,12,17.40
2015,08,21,00,13,17.30
2015,08,21,00,14,17.30
2015,08,21,00,15,17.30
2015,08,21,00,16,17.30
2015,08,21,00,17,17.30
2015,08,21,00,18,17.30
2015,08,21,00,19,17.30
2015,08,21,00,20,17.30
2015,08,21,00,21,17.30
2015,08,21,00,22,17.30
2015,08,21,00,23,17.30
2015,08,21,00,24,17.30
2015,08,21,00,25,17.30
2015,08,21,00,26,17.30
2015,08,21,00,27,17.30
2015,08,21,00,28,17.30
2015,08,21,00,29,17.30
2015,08,21,00,30,17.30
2015,08,21,00,31,17.30
2015,08,21,00,32,17.30
2015,08,21,00,33,17.30
2015,08,21,00,34,17.20
2015,08,21,00,35,17.20
2015,08,21,00,36,17.20
2015,08,21,00,37,17.20
2015,08,21,00,38,17.20
2015,08,21,00,39,17.20
2015,08,21,00,40,17.20
2015,08,21,00,41,17.20
2015,08,21,00,42,17.20
2015,08,21,00,43,17.20
2015,08,21,00,44,17.20
2015,08,21,00,45,17.20
2015,08,21,00,46,17.20
2015,08,21,00,47,17.20
2015,08,21,00,48,17.20
2015,08,21,00,49,17.20
2015,08,21,00,50,17.20
2015,08,21,00,51,17.20
2015,08,21,00,52,17.20
2015,08,21,00,53,17.20
2015,08,21,00,54,17.20
2015,08,21,00,55,17.20
2015,08,21,00,56,17.20
2015,08,21,00,57,17.20
2015,08,21,00,58,17.10
2015,08,21,00,59,17.10
2015,08,21,01,00,17.10
2015,08,21,01,01,17.10
2015,08,21,01,02,17.10
2015,08,21,01,03,17.10
2015,08,21,01,04,17.10
2015,08,21,01,05,17.10
2015,08,21,01,06,17.10
2015,08,21,01,07,17.10
2015,08,21,01,08,17.10
2015,08,21,01,09,17.00
2015,08,21,01,10,17.00
2015,08,21,01,11,17.00
2015,08,21,01,12,16.90
2015,08,21,01,13,16.90
2015,08,21,01,14,16.90
2015,08,21,01,15,16.80
2015,08,21,01,16,16.80
2015,08,21,01,17,16.80
2015,08,21,01,18,16.80
2015,08,21,01,19,16.80
2015,08,21,01,20,16.80
2015,08,21,01,21,16.70
2015,08,21,01,22,16.70
2015,08,21,01,23,16.70
2015,08,21,01,24,16.70
2015,08,21,01,25,16.70
2015,08,21,01,26,16.60
2015,08,21,01,27,16.60
2015,08,21,01,28,16.60
2015,08,21,01,29,16.60
2015,08,21,01,30,16.50
2015,08,21,01,31,16.50
2015,08,21,01,32,16.50
2015,08,21,01,33,16.40
2015,08,21,01,34,16.40
2015,08,21,01,35,16.30
2015,08,21,01,36,16.30
2015,08,21,01,37,16.30
2015,08,21,01,38,16.20
2015,08,21,01,39,16.20
2015,08,21,01,40,16.10
2015,08,21,01,41,16.10
2015,08,21,01,42,16.00
2015,08,21,01,43,16.00
2015,08,21,01,44,15.90
2015,08,21,01,45,16.00
2015,08,21,01,46,16.00
2015,08,21,01,47,16.00
2015,08,21,01,48,15.90
2015,08,21,01,49,15.90
2015,08,21,01,50,15.90
2015,08,21,01,51,15.80
2015,08,21,01,52,15.80
2015,08,21,01,53,15.80
2015,08,21,01,54,15.70
2015,08,21,01,55,15.70
2015,08,21,01,56,15.60
2015,08,21,01,57,15.60
2015,08,21,01,58,15.50
2015,08,21,01,59,15.40
2015,08,21,02,00,15.40
2015,08,21,02,01,15.30
2015,08,21,02,02,15.20
2015,08,21,02,03,15.10
2015,08,21,02,04,15.10
2015,08,21,02,05,15.00
2015,08,21,02,06,14.90
2015,08,21,02,07,14.90
2015,08,21,02,08,14.80
2015,08,21,02,09,14.80
2015,08,21,02,10,14.70
2015,08,21,02,11,14.70
2015,08,21,02,12,14.70
2015,08,21,02,13,14.60
2015,08,21,02,14,14.60
2015,08,21,02,15,14.60
2015,08,21,02,16,14.60
2015,08,21,02,17,14.60
2015,08,21,02,18,14.60
2015,08,21,02,19,14.70
2015,08,21,02,20,14.70
2015,08,21,02,21,14.70
2015,08,21,02,22,14.60
2015,08,21,02,23,14.60
2015,08,21,02,24,14.60
2015,08,21,02,25,14.60
2015,08,21,02,26,14.50
2015,08,21,02,27,14.50
2015,08,21,02,28,14.40
2015,08,21,02,29,14.40
2015,08,21,02,30,14.40
2015,08,21,02,31,14.40
2015,08,21,02,32,14.40
2015,08,21,02,33,14.30
2015,08,21,02,34,14.30
2015,08,21,02,35,14.30
2015,08,21,02,36,14.30
2015,08,21,02,37,14.30
2015,08,21,02,38,14.30
2015,08,21,02,39,14.30
2015,08,21,02,40,14.30
2015,08,21,02,41,14.30
2015,08,21,02,42,14.30
2015,08,21,02,43,14.30
2015,08,21,02,44,14.20
2015,08,21,02,45,14.20
2015,08,21,02,46,14.20
2015,08,21,02,47,14.20
2015,08,21,02,48,14.20
2015,08,21,02,49,14.20
2015,08,21,02,50,14.20
2015,08,21,02,51,14.20
2015,08,21,02,52,14.20
2015,08,21,02,53,14.20
2015,08,21,02,54,14.20
2015,08,21,02,55,14.20
2015,08,21,02,56,14.20
2015,08,21,02,57,14.20
2015,08,21,02,58,14.20
2015,08,21,02,59,14.20
2015,08,21,03,00,14.10
2015,08,21,03,01,14.10
2015,08,21,03,02,14.10
2015,08,21,03,03,14.10
2015,08,21,03,04,14.10
2015,08,21,03,05,14.10
2015,08,21,03,06,14.00
2015,08,21,03,07,14.00
2015,08,21,03,08,14.00
2015,08,21,03,09,13.90
2015,08,21,03,10,13.90
2015,08,21,03,11,13.80
2015,08,21,03,12,13.80
2015,08,21,03,13,13.80
2015,08,21,03,14,13.80
2015,08,21,03,15,13.80
2015,08,21,03,16,13.70
2015,08,21,03,17,13.70
2015,08,21,03,18,13.80
2015,08,21,03,19,13.80
2015,08,21,03,20,13.80
2015,08,21,03,21,13.80
2015,08,21,03,22,13.80
2015,08,21,03,23,13.80
2015,08,21,03,24,13.70
2015,08,21,03,25,13.70
2015,08,21,03,26,13.70
2015,08,21,03,27,13.70
2015,08,21,03,28,13.70
2015,08,21,03,29,13.60
2015,08,21,03,30,13.60
2015,08,21,03,31,13.50
2015,08,21,03,32,13.50
2015,08,21,03,33,13.40
2015,08,21,03,34,13.30
2015,08,21,03,35,13.30
2015,08,21,03,36,13.20
2015,08,21,03,37,13.20
2015,08,21,03,38,13.10
2015,08,21,03,39,13.10
2015,08,21,03,40,13.00
2015,08,21,03,41,13.00
2015,08,21,03,42,12.90
2015,08,21,03,43,12.90
2015,08,21,03,44,12.90
2015,08,21,03,45,12.80
2015,08,21,03,46,12.80
2015,08,21,03,47,12.70
2015,08,21,03,48,12.70
2015,08,21,03,49,12.70
2015,08,21,03,50,12.70
2015,08,21,03,51,12.70
2015,08,21,03,52,12.70
2015,08,21,03,53,12.70
2015,08,21,03,54,12.70
2015,08,21,03,55,12.70
2015,08,21,03,56,12.60
2015,08,21,03,57,12.60
2015,08,21,03,58,12.70
2015,08,21,03,59,12.70
2015,08,21,04,00,12.70
2015,08,21,04,01,12.70
2015,08,21,04,02,12.70
2015,08,21,04,03,12.70
2015,08,21,04,04,12.70
2015,08,21,04,05,12.80
2015,08,21,04,06,12.80
2015,08,21,04,07,12.80
2015,08,21,04,08,12.80
2015,08,21,04,09,12.80
2015,08,21,04,10,12.80
2015,08,21,04,11,12.80
2015,08,21,04,12,12.80
2015,08,21,04,13,12.70
2015,08,21,04,14,12.70
2015,08,21,04,15,12.70
2015,08,21,04,16,12.70
2015,08,21,04,17,12.60
2015,08,21,04,18,12.60
2015,08,21,04,19,12.50
2015,08,21,04,20,12.50
2015,08,21,04,21,12.40
2015,08,21,04,22,12.40
2015,08,21,04,23,12.40
2015,08,21,04,24,12.40
2015,08,21,04,25,12.40
2015,08,21,04,26,12.40
2015,08,21,04,27,12.50
2015,08,21,04,28,12.50
2015,08,21,04,29,12.50
2015,08,21,04,30,12.40
2015,08,21,04,31,12.40
2015,08,21,04,32,12.40
2015,08,21,04,33,12.40
2015,08,21,04,34,12.30
2015,08,21,04,35,12.30
2015,08,21,04,36,12.30
2015,08,21,04,37,12.20
2015,08,21,04,38,12.20
2015,08,21,04,39,12.20
2015,08,21,04,40,12.20
2015,08,21,04,41,12.20
2015,08,21,04,42,12.10
2015,08,21,04,43,12.10
2015,08,21,04,44,12.10
2015,08,21,04,45,12.00
2015,08,21,04,46,12.00
2015,08,21,04,47,12.00
2015,08,21,04,48,12.00
2015,08,21,04,49,11.90
2015,08,21,04,50,11.90
2015,08,21,04,51,11.80
2015,08,21,04,52,11.80
2015,08,21,04,53,11.80
2015,08,21,04,54,11.70
2015,08,21,04,55,11.70
2015,08,21,04,56,11.70
2015,08,21,04,57,11.70
2015,08,21,04,58,11.60
2015,08,21,04,59,11.60
2015,08,21,05,00,11.60
2015,08,21,05,01,11.50
2015,08,21,05,02,11.50
2015,08,21,05,03,11.40
2015,08,21,05,04,11.40
2015,08,21,05,05,11.40
2015,08,21,05,06,11.30
2015,08,21,05,07,11.30
2015,08,21,05,08,11.30
2015,08,21,05,09,11.30
2015,08,21,05,10,11.30
2015,08,21,05,11,11.30
2015,08,21,05,12,11.20
2015,08,21,05,13,11.20
2015,08,21,05,14,11.20
2015,08,21,05,15,11.20
2015,08,21,05,16,11.10
2015,08,21,05,17,11.10
2015,08,21,05,18,11.10
2015,08,21,05,19,11.00
2015,08,21,05,20,11.00
2015,08,21,05,21,10.90
2015,08,21,05,22,10.90
2015,08,21,05,23,10.90
2015,08,21,05,24,10.90
2015,08,21,05,25,10.80
2015,08,21,05,26,10.80
2015,08,21,05,27,10.80
2015,08,21,05,28,10.80
2015,08,21,05,29,10.80
2015,08,21,05,30,10.80
2015,08,21,05,31,10.80
2015,08,21,05,32,10.80
2015,08,21,05,33,10.80
2015,08,21,05,34,10.80
2015,08,21,05,35,10.80
2015,08,21,05,36,10.70
2015,08,21,05,37,10.70
2015,08,21,05,38,10.70
2015,08,21,05,39,10.70
2015,08,21,05,40,10.70
2015,08,21,05,41,10.70
2015,08,21,05,42,10.60
2015,08,21,05,43,10.60
2015,08,21,05,44,10.50
2015,08,21,05,45,10.50
2015,08,21,05,46,10.50
2015,08,21,05,47,10.40
2015,08,21,05,48,10.40
2015,08,21,05,49,10.40
2015,08,21,05,50,10.30
2015,08,21,05,51,10.30
2015,08,21,05,52,10.30
2015,08,21,05,53,10.30
2015,08,21,05,54,10.30
2015,08,21,05,55,10.30
2015,08,21,05,56,10.30
2015,08,21,05,57,10.30
2015,08,21,05,58,10.30
2015,08,21,05,59,10.30
2015,08,21,06,00,10.30
2015,08,21,06,01,10.30
2015,08,21,06,02,10.30
2015,08,21,06,03,10.30
2015,08,21,06,04,10.30
2015,08,21,06,05,10.30
2015,08,21,06,06,10.30
2015,08,21,06,07,10.20
2015,08,21,06,08,10.20
2015,08,21,06,09,10.20
2015,08,21,06,10,10.20
2015,08,21,06,11,10.20
2015,08,21,06,12,10.20
2015,08,21,06,13,10.20
2015,08,21,06,14,10.20
2015,08,21,06,15,10.20
2015,08,21,06,16,10.20
2015,08,21,06,17,10.20
2015,08,21,06,18,10.20
2015,08,21,06,19,10.10
2015,08,21,06,20,10.10
2015,08,21,06,21,10.10
2015,08,21,06,22,10.20
2015,08,21,06,23,10.20
2015,08,21,06,24,10.20
2015,08,21,06,25,10.30
2015,08,21,06,26,10.30
2015,08,21,06,27,10.30
2015,08,21,06,28,10.40
2015,08,21,06,29,10.30
2015,08,21,06,30,10.30
2015,08,21,06,31,10.30
2015,08,21,06,32,10.30
2015,08,21,06,33,10.30
2015,08,21,06,34,10.30
2015,08,21,06,35,10.30
2015,08,21,06,36,10.40
2015,08,21,06,37,10.40
2015,08,21,06,38,10.40
2015,08,21,06,39,10.50
2015,08,21,06,40,10.50
2015,08,21,06,41,10.60
2015,08,21,06,42,10.60
2015,08,21,06,43,10.60
2015,08,21,06,44,10.60
2015,08,21,06,45,10.70
2015,08,21,06,46,10.70
2015,08,21,06,47,10.70
2015,08,21,06,48,10.70
2015,08,21,06,49,10.80
2015,08,21,06,50,10.70
2015,08,21,06,51,10.70
2015,08,21,06,52,10.70
2015,08,21,06,53,10.70
2015,08,21,06,54,10.70
2015,08,21,06,55,10.60
2015,08,21,06,56,10.60
2015,08,21,06,57,10.60
2015,08,21,06,58,10.60
2015,08,21,06,59,10.60
2015,08,21,07,00,10.60
2015,08,21,07,01,10.60
2015,08,21,07,02,10.70
2015,08,21,07,03,10.80
2015,08,21,07,04,11.00
2015,08,21,07,05,11.20
2015,08,21,07,06,11.50
2015,08,21,07,07,11.60
2015,08,21,07,08,11.80
2015,08,21,07,09,12.00
2015,08,21,07,10,12.20
2015,08,21,07,11,12.30
2015,08,21,07,12,12.50
2015,08,21,07,13,12.60
2015,08,21,07,14,12.80
2015,08,21,07,15,12.90
2015,08,21,07,16,13.00
2015,08,21,07,17,13.00
2015,08,21,07,18,13.10
2015,08,21,07,19,13.10
2015,08,21,07,20,13.20
2015,08,21,07,21,13.30
2015,08,21,07,22,13.40
2015,08,21,07,23,13.50
2015,08,21,07,24,13.70
2015,08,21,07,25,13.80
2015,08,21,07,26,13.90
2015,08,21,07,27,14.00
2015,08,21,07,28,14.10
2015,08,21,07,29,14.20
2015,08,21,07,30,14.20
2015,08,21,07,31,14.20
2015,08,21,07,32,14.30
2015,08,21,07,33,14.30
2015,08,21,07,34,14.40
2015,08,21,07,35,14.40
2015,08,21,07,36,14.40
2015,08,21,07,37,14.50
2015,08,21,07,38,14.50
2015,08,21,07,39,14.50
2015,08,21,07,40,14.60
2015,08,21,07,41,14.60
2015,08,21,07,42,14.60
2015,08,21,07,43,14.70
2015,08,21,07,44,14.70
2015,08,21,07,45,14.70
2015,08,21,07,46,14.70
2015,08,21,07,47,14.80
2015,08,21,07,48,14.80
2015,08,21,07,49,14.80
2015,08,21,07,50,14.80
2015,08,21,07,51,14.90
2015,08,21,07,52,14.90
2015,08,21,07,53,14.90
2015,08,21,07,54,15.00
2015,08,21,07,55,15.00
2015,08,21,07,56,15.00
2015,08,21,07,57,15.00
2015,08,21,07,58,15.10
2015,08,21,07,59,15.10
2015,08,21,08,00,15.10
2015,08,21,08,01,15.10
2015,08,21,08,02,15.10
2015,08,21,08,03,15.10
2015,08,21,08,04,15.20
2015,08,21,08,05,15.20
2015,08,21,08,06,15.20
2015,08,21,08,07,15.20
2015,08,21,08,08,15.20
2015,08,21,08,09,15.30
2015,08,21,08,10,15.30
2015,08,21,08,11,15.30
2015,08,21,08,12,15.30
2015,08,21,08,13,15.40
2015,08,21,08,14,15.40
2015,08,21,08,15,15.40
2015,08,21,08,16,15.40
2015,08,21,08,17,15.50
2015,08,21,08,18,15.50
2015,08,21,08,19,15.60
2015,08,21,08,20,15.60
2015,08,21,08,21,15.60
2015,08,21,08,22,15.60
2015,08,21,08,23,15.60
2015,08,21,08,24,15.60
2015,08,21,08,25,15.60
2015,08,21,08,26,15.70
2015,08,21,08,27,15.70
2015,08,21,08,28,15.70
2015,08,21,08,29,15.70
2015,08,21,08,30,15.80
2015,08,21,08,31,15.80
2015,08,21,08,32,15.90
2015,08,21,08,33,15.90
2015,08,21,08,34,15.90
2015,08,21,08,35,15.90
2015,08,21,08,36,16.00
2015,08,21,08,37,16.00
2015,08,21,08,38,16.10
2015,08,21,08,39,16.10
2015,08,21,08,40,16.10
2015,08,21,08,41,16.10
2015,08,21,08,42,16.20
2015,08,21,08,43,16.20
2015,08,21,08,44,16.20
2015,08,21,08,45,16.20
2015,08,21,08,46,16.30
2015,08,21,08,47,16.30
2015,08,21,08,48,16.30
2015,08,21,08,49,16.30
2015,08,21,08,50,16.30
2015,08,21,08,51,16.20
2015,08,21,08,52,16.20
2015,08,21,08,53,16.30
2015,08,21,08,54,16.30
2015,08,21,08,55,16.30
2015,08,21,08,56,16.30
2015,08,21,08,57,16.40
2015,08,21,08,58,16.50
2015,08,21,08,59,16.50
2015,08,21,09,00,16.60
2015,08,21,09,01,16.70
2015,08,21,09,02,16.80
2015,08,21,09,03,16.80
2015,08,21,09,04,16.90
2015,08,21,09,05,16.90
2015,08,21,09,06,17.00
2015,08,21,09,07,17.00
2015,08,21,09,08,17.10
2015,08,21,09,09,17.10
2015,08,21,09,10,17.10
2015,08,21,09,11,17.10
2015,08,21,09,12,17.20
2015,08,21,09,13,17.20
2015,08,21,09,14,17.20
2015,08,21,09,15,17.20
2015,08,21,09,16,17.30
2015,08,21,09,17,17.30
2015,08,21,09,18,17.40
2015,08,21,09,19,17.40
2015,08,21,09,20,17.40
2015,08,21,09,21,17.50
2015,08,21,09,22,17.60
2015,08,21,09,23,17.60
2015,08,21,09,24,17.60
2015,08,21,09,25,17.60
2015,08,21,09,26,17.60
2015,08,21,09,27,17.70
2015,08,21,09,28,17.70
2015,08,21,09,29,17.80
2015,08,21,09,30,17.80
2015,08,21,09,31,17.90
2015,08,21,09,32,17.90
2015,08,21,09,33,17.90
2015,08,21,09,34,17.90
2015,08,21,09,35,17.90
2015,08,21,09,36,17.90
2015,08,21,09,37,17.90
2015,08,21,09,38,17.90
2015,08,21,09,39,17.90
2015,08,21,09,40,17.90
2015,08,21,09,41,17.90
2015,08,21,09,42,17.90
2015,08,21,09,43,17.90
2015,08,21,09,44,18.00
2015,08,21,09,45,18.00
2015,08,21,09,46,18.10
2015,08,21,09,47,18.20
2015,08,21,09,48,18.30
2015,08,21,09,49,18.30
2015,08,21,09,50,18.40
2015,08,21,09,51,18.40
2015,08,21,09,52,18.50
2015,08,21,09,53,18.50
2015,08,21,09,54,18.50
2015,08,21,09,55,18.60
2015,08,21,09,56,18.60
2015,08,21,09,57,18.70
2015,08,21,09,58,18.70
2015,08,21,09,59,18.70
2015,08,21,10,00,18.70
2015,08,21,10,01,18.70
2015,08,21,10,02,18.80
2015,08,21,10,03,18.80
2015,08,21,10,04,18.90
2015,08,21,10,05,19.00
2015,08,21,10,06,19.10
2015,08,21,10,07,19.10
2015,08,21,10,08,19.10
2015,08,21,10,09,19.10
2015,08,21,10,10,19.10
2015,08,21,10,11,19.10
2015,08,21,10,12,19.20
2015,08,21,10,13,19.30
2015,08,21,10,14,19.30
2015,08,21,10,15,19.40
2015,08,21,10,16,19.40
2015,08,21,10,17,19.40
2015,08,21,10,18,19.40
2015,08,21,10,19,19.40
2015,08,21,10,20,19.40
2015,08,21,10,21,19.50
2015,08,21,10,22,19.40
2015,08,21,10,23,19.40
2015,08,21,10,24,19.30
2015,08,21,10,25,19.20
2015,08,21,10,26,19.20
2015,08,21,10,27,19.10
2015,08,21,10,28,19.00
2015,08,21,10,29,18.90
2015,08,21,10,30,19.00
2015,08,21,10,31,19.10
2015,08,21,10,32,19.20
2015,08,21,10,33,19.30
2015,08,21,10,34,19.40
2015,08,21,10,35,19.40
2015,08,21,10,36,19.50
2015,08,21,10,37,19.40
2015,08,21,10,38,19.50
2015,08,21,10,39,19.60
2015,08,21,10,40,19.60
2015,08,21,10,41,19.70
2015,08,21,10,42,19.60
2015,08,21,10,43,19.50
2015,08,21,10,44,19.40
2015,08,21,10,45,19.30
2015,08,21,10,46,19.20
2015,08,21,10,47,19.20
2015,08,21,10,48,19.10
2015,08,21,10,49,19.10
2015,08,21,10,50,19.10
2015,08,21,10,51,19.10
2015,08,21,10,52,19.10
2015,08,21,10,53,19.00
2015,08,21,10,54,19.00
2015,08,21,10,55,19.00
2015,08,21,10,56,18.90
2015,08,21,10,57,18.90
2015,08,21,10,58,18.90
2015,08,21,10,59,18.90
2015,08,21,11,00,18.90
2015,08,21,11,01,18.90
2015,08,21,11,02,18.70
2015,08,21,11,03,18.60
2015,08,21,11,04,18.60
2015,08,21,11,05,18.60
2015,08,21,11,06,18.60
2015,08,21,11,07,18.60
2015,08,21,11,08,18.60
2015,08,21,11,09,18.60
2015,08,21,11,10,18.60
2015,08,21,11,11,18.50
2015,08,21,11,12,18.50
2015,08,21,11,13,18.50
2015,08,21,11,14,18.50
2015,08,21,11,15,18.50
2015,08,21,11,16,18.50
2015,08,21,11,17,18.50
2015,08,21,11,18,18.60
2015,08,21,11,19,18.60
2015,08,21,11,20,18.60
2015,08,21,11,21,18.60
2015,08,21,11,22,18.60
2015,08,21,11,23,18.60
2015,08,21,11,24,18.60
2015,08,21,11,25,18.60
2015,08,21,11,26,18.60
2015,08,21,11,27,18.60
2015,08,21,11,28,18.60
2015,08,21,11,29,18.70
2015,08,21,11,30,18.80
2015,08,21,11,31,18.90
2015,08,21,11,32,18.90
2015,08,21,11,33,19.00
2015,08,21,11,34,19.10
2015,08,21,11,35,19.20
2015,08,21,11,36,19.30
2015,08,21,11,37,19.30
2015,08,21,11,38,19.30
2015,08,21,11,39,19.20
2015,08,21,11,40,19.20
2015,08,21,11,41,19.20
2015,08,21,11,42,19.30
2015,08,21,11,43,19.30
2015,08,21,11,44,19.30
2015,08,21,11,45,19.30
2015,08,21,11,46,19.20
2015,08,21,11,47,19.20
2015,08,21,11,48,19.10
2015,08,21,11,49,19.10
2015,08,21,11,50,19.10
2015,08,21,11,51,19.20
2015,08,21,11,52,19.20
2015,08,21,11,53,19.20
2015,08,21,11,54,19.20
2015,08,21,11,55,19.10
2015,08,21,11,56,19.00
2015,08,21,11,57,18.90
2015,08,21,11,58,19.00
2015,08,21,11,59,19.00
2015,08,21,12,00,19.20
2015,08,21,12,01,19.30
2015,08,21,12,02,19.50
2015,08,21,12,03,19.50
2015,08,21,12,04,19.60
2015,08,21,12,05,19.60
2015,08,21,12,06,19.70
2015,08,21,12,07,19.70
2015,08,21,12,08,19.70
2015,08,21,12,09,19.60
2015,08,21,12,10,19.60
2015,08,21,12,11,19.60
2015,08,21,12,12,19.70
2015,08,21,12,13,19.70
2015,08,21,12,14,19.70
2015,08,21,12,15,19.70
2015,08,21,12,16,19.80
2015,08,21,12,17,19.80
2015,08,21,12,18,19.90
2015,08,21,12,19,20.00
2015,08,21,12,20,20.00
2015,08,21,12,21,20.10
2015,08,21,12,22,20.20
2015,08,21,12,23,20.20
2015,08,21,12,24,20.20
2015,08,21,12,25,20.10
2015,08,21,12,26,20.10
2015,08,21,12,27,20.10
2015,08,21,12,28,20.10
2015,08,21,12,29,20.10
2015,08,21,12,30,20.20
2015,08,21,12,31,20.20
2015,08,21,12,32,20.10
2015,08,21,12,33,20.20
2015,08,21,12,34,20.20
2015,08,21,12,35,20.30
2015,08,21,12,36,20.30
2015,08,21,12,37,20.30
2015,08,21,12,38,20.30
2015,08,21,12,39,20.30
2015,08,21,12,40,20.30
2015,08,21,12,41,20.30
2015,08,21,12,42,20.30
2015,08,21,12,43,20.30
2015,08,21,12,44,20.30
2015,08,21,12,45,20.30
2015,08,21,12,46,20.30
2015,08,21,12,47,20.30
2015,08,21,12,48,20.30
2015,08,21,12,49,20.30
2015,08,21,12,50,20.40
2015,08,21,12,51,20.50
2015,08,21,12,52,20.60
2015,08,21,12,53,20.60
2015,08,21,12,54,20.50
2015,08,21,12,55,20.50
2015,08,21,12,56,20.50
2015,08,21,12,57,20.40
2015,08,21,12,58,20.40
2015,08,21,12,59,20.40
2015,08,21,13,00,20.40
2015,08,21,13,01,20.40
2015,08,21,13,02,20.30
2015,08,21,13,03,20.20
2015,08,21,13,04,20.30
2015,08,21,13,05,20.30
2015,08,21,13,06,20.30
2015,08,21,13,07,20.30
2015,08,21,13,08,20.30
2015,08,21,13,09,20.30
2015,08,21,13,10,20.30
2015,08,21,13,11,20.40
2015,08,21,13,12,20.40
2015,08,21,13,13,20.50
2015,08,21,13,14,20.50
2015,08,21,13,15,20.40
2015,08,21,13,16,20.40
2015,08,21,13,17,20.40
2015,08,21,13,18,20.40
2015,08,21,13,19,20.40
2015,08,21,13,20,20.50
2015,08,21,13,21,20.50
2015,08,21,13,22,20.60
2015,08,21,13,23,20.70
2015,08,21,13,24,20.80
2015,08,21,13,25,20.90
2015,08,21,13,26,21.00
2015,08,21,13,27,21.10
2015,08,21,13,28,21.10
2015,08,21,13,29,21.10
2015,08,21,13,30,21.10
2015,08,21,13,31,21.10
2015,08,21,13,32,21.20
2015,08,21,13,33,21.20
2015,08,21,13,34,21.30
2015,08,21,13,35,21.40
2015,08,21,13,36,21.40
2015,08,21,13,37,21.30
2015,08,21,13,38,21.30
2015,08,21,13,39,21.30
2015,08,21,13,40,21.40
2015,08,21,13,41,21.40
2015,08,21,13,42,21.50
2015,08,21,13,43,21.60
2015,08,21,13,44,21.70
2015,08,21,13,45,21.80
2015,08,21,13,46,21.80
2015,08,21,13,47,21.80
2015,08,21,13,48,21.80
2015,08,21,13,49,21.80
2015,08,21,13,50,21.80
2015,08,21,13,51,21.80
2015,08,21,13,52,21.70
2015,08,21,13,53,21.70
2015,08,21,13,54,21.60
2015,08,21,13,55,21.60
2015,08,21,13,56,21.60
2015,08,21,13,57,21.70
2015,08,21,13,58,21.80
2015,08,21,13,59,21.90
2015,08,21,14,00,22.00
2015,08,21,14,01,22.10
2015,08,21,14,02,22.10
2015,08,21,14,03,22.10
2015,08,21,14,04,22.00
2015,08,21,14,05,21.90
2015,08,21,14,06,21.90
2015,08,21,14,07,21.80
2015,08,21,14,08,21.80
2015,08,21,14,09,21.70
2015,08,21,14,10,21.60
2015,08,21,14,11,21.50
2015,08,21,14,12,21.50
2015,08,21,14,13,21.40
2015,08,21,14,14,21.30
2015,08,21,14,15,21.40
2015,08,21,14,16,21.50
2015,08,21,14,17,21.70
2015,08,21,14,18,21.80
2015,08,21,14,19,21.90
2015,08,21,14,20,21.90
2015,08,21,14,21,21.90
2015,08,21,14,22,21.80
2015,08,21,14,23,21.80
2015,08,21,14,24,21.90
2015,08,21,14,25,21.90
2015,08,21,14,26,21.90
2015,08,21,14,27,21.90
2015,08,21,14,28,22.00
2015,08,21,14,29,22.00
2015,08,21,14,30,22.00
2015,08,21,14,31,21.90
2015,08,21,14,32,21.90
2015,08,21,14,33,21.80
2015,08,21,14,34,21.80
2015,08,21,14,35,21.70
2015,08,21,14,36,21.60
2015,08,21,14,37,21.60
2015,08,21,14,38,21.70
2015,08,21,14,39,21.80
2015,08,21,14,40,21.90
2015,08,21,14,41,22.00
2015,08,21,14,42,22.00
2015,08,21,14,43,22.00
2015,08,21,14,44,22.00
2015,08,21,14,45,22.00
2015,08,21,14,46,22.00
2015,08,21,14,47,22.10
2015,08,21,14,48,22.20
2015,08,21,14,49,22.20
2015,08,21,14,50,22.30
2015,08,21,14,51,22.40
2015,08,21,14,52,22.50
2015,08,21,14,53,22.70
2015,08,21,14,54,22.80
2015,08,21,14,55,22.80
2015,08,21,14,56,22.80
2015,08,21,14,57,22.80
2015,08,21,14,58,22.60
2015,08,21,14,59,22.50
2015,08,21,15,00,22.40
2015,08,21,15,01,22.40
2015,08,21,15,02,22.40
2015,08,21,15,03,22.50
2015,08,21,15,04,22.70
2015,08,21,15,05,22.80
2015,08,21,15,06,22.90
2015,08,21,15,07,22.90
2015,08,21,15,08,22.90
2015,08,21,15,09,22.90
2015,08,21,15,10,22.90
2015,08,21,15,11,22.80
2015,08,21,15,12,22.70
2015,08,21,15,13,22.60
2015,08,21,15,14,22.60
2015,08,21,15,15,22.60
2015,08,21,15,16,22.60
2015,08,21,15,17,22.70
2015,08,21,15,18,22.70
2015,08,21,15,19,22.80
2015,08,21,15,20,22.70
2015,08,21,15,21,22.70
2015,08,21,15,22,22.80
2015,08,21,15,23,22.70
2015,08,21,15,24,22.70
2015,08,21,15,25,22.70
2015,08,21,15,26,22.70
2015,08,21,15,27,22.70
2015,08,21,15,28,22.70
2015,08,21,15,29,22.70
2015,08,21,15,30,22.70
2015,08,21,15,31,22.80
2015,08,21,15,32,22.80
2015,08,21,15,33,22.90
2015,08,21,15,34,22.90
2015,08,21,15,35,22.90
2015,08,21,15,36,22.80
2015,08,21,15,37,22.90
2015,08,21,15,38,22.90
2015,08,21,15,39,23.00
2015,08,21,15,40,23.00
2015,08,21,15,41,23.10
2015,08,21,15,42,23.20
2015,08,21,15,43,23.20
2015,08,21,15,44,23.20
2015,08,21,15,45,23.20
2015,08,21,15,46,23.10
2015,08,21,15,47,23.00
2015,08,21,15,48,22.90
2015,08,21,15,49,22.90
2015,08,21,15,50,22.80
2015,08,21,15,51,22.80
2015,08,21,15,52,22.80
2015,08,21,15,53,22.80
2015,08,21,15,54,22.80
2015,08,21,15,55,22.80
2015,08,21,15,56,22.80
2015,08,21,15,57,22.80
2015,08,21,15,58,22.80
2015,08,21,15,59,22.90
2015,08,21,16,00,22.90
2015,08,21,16,01,22.90
2015,08,21,16,02,22.90
2015,08,21,16,03,22.90
2015,08,21,16,04,22.90
2015,08,21,16,05,22.90
2015,08,21,16,06,22.80
2015,08,21,16,07,22.90
2015,08,21,16,08,22.90
2015,08,21,16,09,23.00
2015,08,21,16,10,23.10
2015,08,21,16,11,23.20
2015,08,21,16,12,23.20
2015,08,21,16,13,23.20
2015,08,21,16,14,23.20
2015,08,21,16,15,23.20
2015,08,21,16,16,23.20
2015,08,21,16,17,23.20
2015,08,21,16,18,23.30
2015,08,21,16,19,23.40
2015,08,21,16,20,23.40
2015,08,21,16,21,23.50
2015,08,21,16,22,23.50
2015,08,21,16,23,23.50
2015,08,21,16,24,23.50
2015,08,21,16,25,23.60
2015,08,21,16,26,23.60
2015,08,21,16,27,23.60
2015,08,21,16,28,23.60
2015,08,21,16,29,23.70
2015,08,21,16,30,23.70
2015,08,21,16,31,23.80
2015,08,21,16,32,23.80
2015,08,21,16,33,23.90
2015,08,21,16,34,24.00
2015,08,21,16,35,24.00
2015,08,21,16,36,24.10
2015,08,21,16,37,24.10
2015,08,21,16,38,24.10
2015,08,21,16,39,24.20
2015,08,21,16,40,24.20
2015,08,21,16,41,24.30
2015,08,21,16,42,24.30
2015,08,21,16,43,24.30
2015,08,21,16,44,24.20
2015,08,21,16,45,24.20
2015,08,21,16,46,24.30
2015,08,21,16,47,24.30
2015,08,21,16,48,24.30
2015,08,21,16,49,24.40
2015,08,21,16,50,24.40
2015,08,21,16,51,24.20
2015,08,21,16,52,24.00
2015,08,21,16,53,23.70
2015,08,21,16,54,23.50
2015,08,21,16,55,23.40
2015,08,21,16,56,23.30
2015,08,21,16,57,23.30
2015,08,21,16,58,23.20
2015,08,21,16,59,23.20
2015,08,21,17,00,23.20
2015,08,21,17,01,23.30
2015,08,21,17,02,23.30
2015,08,21,17,03,23.30
2015,08,21,17,04,23.40
2015,08,21,17,05,23.40
2015,08,21,17,06,23.50
2015,08,21,17,07,23.50
2015,08,21,17,08,23.60
2015,08,21,17,09,23.70
2015,08,21,17,10,23.70
2015,08,21,17,11,23.80
2015,08,21,17,12,23.90
2015,08,21,17,13,24.00
2015,08,21,17,14,24.10
2015,08,21,17,15,24.20
2015,08,21,17,16,24.30
2015,08,21,17,17,24.40
2015,08,21,17,18,24.60
2015,08,21,17,19,24.70